Weather Roundup
Issued by NWS

Home | Current Version | Previous Version | Graphics & Text | Print | Product List | Glossary Off
Versions: 1 2 3 4 5 6 7 8 9 10 11 12 13 14 15 16 17 18 19 20 21 22 23 24 25 26 27 28 29 30 31 32 33 34 35 36 37 38 39 40 41 42 43 44 45 46 47 48 49 50

000
NZUS93 KARX 202110
HRRWXR

CURRENT HOURLY OBSERVATIONS ACROSS
MUCH OF THE UPPER MISSISSIPPI VALLEY
NATIONAL WEATHER SERVICE LA CROSSE WI
400 PM CDT SAT SEP 20 2014


...SOUTHEAST MINNESOTA...


CITY           SKY/WX    TMP DP  RH WIND       PRES   REMARKS
ROCHESTER      SUNNY     76  54  46 W12       29.80F
ROCHESTER/MAYO FAIR      75  49  40 W17G28    29.78F
WINONA         MOSUNNY   77  55  47 NW15      29.76S
AUSTIN         SUNNY     75  55  50 W13G20    29.80F
ALBERT LEA     SUNNY     79  54  41 W12G21    29.80F
DODGE CENTER   SUNNY     75  55  50 W12G18    29.79F
PRESTON        SUNNY     74  61  64 W14G21    29.80F
OWATONNA       SUNNY     77  52  41 W14       29.79F
FARIBAULT      SUNNY     81  45  28 W10G17    29.78F
$$

...ELSEWHERE IN MINNESOTA...


CITY           SKY/WX    TMP DP  RH WIND       PRES   REMARKS
MINNEAPOLIS    MOSUNNY   77  54  44 W14       29.74F
INTNL FALLS    PTSUNNY   60  47  61 CALM      29.70S
DULUTH         PTSUNNY   69  47  45 W12G18    29.71S
RED WING       SUNNY     79  52  38 NW8       29.73F
REDWOOD FALLS  PTSUNNY   80  53  39 W23G29    29.75F
MANKATO        MOSUNNY   79  54  41 W14       29.77F
WORTHINGTON    SUNNY     81  54  39 W20G28    29.85F
FAIRMONT       SUNNY     81  46  30 W15       29.80F
$$

...SOUTHWEST WISCONSIN...


CITY           SKY/WX    TMP DP  RH WIND       PRES   REMARKS
LA CROSSE      SUNNY     80  58  46 NW12      29.74F
PRAIRIE DU CHI PTSUNNY   79  59  50 W12       29.77R
BOSCOBEL       MOSUNNY   80  64  58 SW8       29.76F
LONE ROCK      MOSUNNY   80  63  55 SW12      29.76F
PLATTEVILLE    MOSUNNY   78  64  62 SW17G23   29.80S
FORT MC COY    MOSUNNY   77  56  49 W9        29.75S
CAMP DOUGLAS   MOSUNNY   76  64  64 W12       29.74F
VIROQUA        MOCLDY    77  57  51 W10       29.78S
WIS DELLS      PTSUNNY   73  62  67 W8        29.76S
$$

...ELSEWHERE IN WISCONSIN...


CITY           SKY/WX    TMP DP  RH WIND       PRES   REMARKS
MILWAUKEE      CLOUDY    73  64  73 SW14      29.75F
MADISON        PTSUNNY   77  61  57 VRB5      29.75F
GREEN BAY      PTSUNNY   75  63  66 W13       29.68F
EAU CLAIRE     PTSUNNY   75  56  51 NW12      29.73S
BLACK RVR FLS  FAIR      77  55  45 W12       29.74R
MEDFORD        MOSUNNY   71  55  56 W12G20    29.72S
WAUSAU         MOSUNNY   75  55  49 W15       29.69S
WIS RAPIDS     MOSUNNY   74  57  55 W12       29.74S
MARSHFIELD     MOSUNNY   74  56  53 W14G20    29.73F
RICE LAKE      MOSUNNY   72  52  49 NW14      29.76S
$$

...NORTHEAST IOWA...


CITY           SKY/WX    TMP DP  RH WIND       PRES   REMARKS
WATERLOO       SUNNY     81  57  43 W16G23    29.80S
DUBUQUE        MOSUNNY   77  64  64 W14       29.80F
DECORAH        SUNNY     77  57  50 W10G22    29.79S
MASON CITY     MOSUNNY   80  56  43 W17G26    29.83F
CHARLES CITY   MOSUNNY   79  57  47 W14       29.82S
OELWEIN        SUNNY     81  59  47 NW17G24   29.82S
$$

...ELSEWHERE IN IOWA...


CITY           SKY/WX    TMP DP  RH WIND       PRES   REMARKS
DES MOINES     MOSUNNY   84  65  52 W15       29.85F
IOWA CITY      MOSUNNY   78  67  68 SW10G18   29.84S
FORT DODGE     MOSUNNY   81  57  44 W9G16     29.86F
MARSHALLTOWN   SUNNY     82  60  47 W15       29.83S
CEDAR RAPIDS   PTSUNNY   78  67  68 SW14      29.82F
$$

...NORTHERN ILLINOIS...


CITY           SKY/WX    TMP DP  RH WIND       PRES   REMARKS
CHICAGO-OHARE  LGT RAIN  73  67  81 W8G22     29.80F
DUPAGE         PTSUNNY   74  66  76 SW15      29.80F
CHICAGO-MIDWAY LGT RAIN  75  68  78 SW9       29.82R
MOLINE         PTSUNNY   79  68  69 W9        29.82F
ROCKFORD       CLOUDY    73  66  78 SW13      29.79F
STERLING       CLOUDY    79  66  65 W6        29.80F
PEORIA         PTSUNNY   79  68  69 SW13      29.86F
$$

NOTE: "FAIR" INDICATES FEW OR NO CLOUDS BELOW 12,000 FEET WITH NO
SIGNIFICANT WEATHER AND/OR OBSTRUCTIONS TO VISIBILITY. WIND
SPEEDS ARE IN MILES-PER-HOUR.



USA.gov is the U.S. government's official web portal to all federal, state and local government web resources and services.